• In Latvia
  • List of Countries
  • For 7 days
  • Water Temperature
  • Satellite Maps
  • Weather Map
  • Weather Widgets
  • user-avatar
    Login

    Hourly Weather Liepaja

    Today, 23 February, Friday

    Time Temperature Precipitation Wind Pressure Humidity
    00:00 -12°C° 0 mm 2 mps 772 mmHg 85%
    01:00 -12°C° 0 mm 2 mps 771 mmHg 85%
    02:00 -12°C° 0 mm 2 mps 771 mmHg 85%
    03:00 -12°C° 0 mm 2 mps 771 mmHg 85%
    04:00 -13°C° 0 mm 2 mps 770 mmHg 85%
    05:00 -13°C° 0 mm 3 mps 770 mmHg 84%
    06:00 -13°C° 0 mm 3 mps 770 mmHg 84%
    07:00 -13°C° 0 mm 3 mps 770 mmHg 84%
    08:00 -12°C° 0.1 mm 4 mps 770 mmHg 81%
    09:00 -11°C° 0.1 mm 4 mps 769 mmHg 78%
    10:00 -11°C° 0.1 mm 5 mps 769 mmHg 75%
    11:00 -11°C° 0.4 mm 5 mps 769 mmHg 77%
    12:00 -10°C° 0.4 mm 6 mps 768 mmHg 80%
    13:00 -9°C° 0.4 mm 6 mps 768 mmHg 82%
    14:00 -9°C° 0.6 mm 6 mps 768 mmHg 85%
    15:00 -9°C° 0.6 mm 7 mps 767 mmHg 88%
    16:00 -9°C° 0.6 mm 7 mps 767 mmHg 91%
    17:00 -9°C° 0.3 mm 7 mps 767 mmHg 90%
    18:00 -11°C° 0.3 mm 7 mps 767 mmHg 89%
    19:00 -11°C° 0.3 mm 7 mps 767 mmHg 89%
    20:00 -11°C° 0.2 mm 7 mps 767 mmHg 89%
    21:00 -12°C° 0.2 mm 7 mps 768 mmHg 89%
    22:00 -12°C° 0.2 mm 7 mps 768 mmHg 89%
    23:00 -13°C° 0.1 mm 7 mps 769 mmHg 86%

    Tomorrow, 24 February, Saturday

    Time Temperature Precipitation Wind Pressure Humidity
    00:00 -13°C° 0.1 mm 7 mps 770 mmHg 83%
    01:00 -13°C° 0.1 mm 7 mps 771 mmHg 80%
    02:00 -14°C° 0 mm 6 mps 771 mmHg 82%
    03:00 -14°C° 0 mm 6 mps 772 mmHg 83%
    04:00 -13°C° 0 mm 5 mps 772 mmHg 85%
    05:00 -14°C° 0 mm 6 mps 773 mmHg 86%
    06:00 -14°C° 0 mm 6 mps 774 mmHg 87%
    07:00 -14°C° 0 mm 6 mps 774 mmHg 87%
    08:00 -12°C° 0 mm 6 mps 774 mmHg 83%
    09:00 -12°C° 0 mm 6 mps 775 mmHg 79%
    10:00 -11°C° 0 mm 6 mps 775 mmHg 74%
    11:00 -11°C° 0 mm 6 mps 775 mmHg 73%
    12:00 -11°C° 0 mm 6 mps 775 mmHg 71%
    13:00 -10°C° 0 mm 6 mps 775 mmHg 70%
    14:00 -11°C° 0 mm 6 mps 775 mmHg 71%
    15:00 -11°C° 0 mm 6 mps 775 mmHg 72%
    16:00 -11°C° 0 mm 6 mps 775 mmHg 74%
    17:00 -12°C° 0 mm 5 mps 775 mmHg 78%
    18:00 -13°C° 0 mm 5 mps 775 mmHg 82%
    19:00 -14°C° 0 mm 5 mps 775 mmHg 86%
    20:00 -14°C° 0 mm 5 mps 775 mmHg 87%
    21:00 -14°C° 0 mm 5 mps 775 mmHg 88%
    22:00 -14°C° 0 mm 4 mps 775 mmHg 89%
    23:00 -14°C° 0 mm 4 mps 775 mmHg 90%

    Day after tomorrow, 25 February, Sunday

    Time Temperature Precipitation Wind Pressure Humidity
    00:00 -14°C° 0 mm 4 mps 775 mmHg 90%
    01:00 -14°C° 0 mm 4 mps 775 mmHg 91%
    02:00 -15°C° 0 mm 4 mps 775 mmHg 91%
    03:00 -15°C° 0 mm 4 mps 775 mmHg 92%
    04:00 -15°C° 0 mm 4 mps 775 mmHg 92%
    05:00 -15°C° 0 mm 4 mps 775 mmHg 92%
    06:00 -16°C° 0 mm 4 mps 775 mmHg 91%
    07:00 -17°C° 0 mm 5 mps 775 mmHg 91%
    08:00 -15°C° 0 mm 5 mps 775 mmHg 86%
    09:00 -14°C° 0 mm 5 mps 776 mmHg 81%
    10:00 -14°C° 0 mm 5 mps 776 mmHg 76%
    11:00 -13°C° 0 mm 5 mps 775 mmHg 75%
    12:00 -13°C° 0 mm 5 mps 775 mmHg 73%
    13:00 -12°C° 0 mm 5 mps 775 mmHg 71%
    14:00 -12°C° 0 mm 5 mps 775 mmHg 72%
    15:00 -12°C° 0 mm 5 mps 775 mmHg 74%
    16:00 -13°C° 0 mm 5 mps 775 mmHg 75%
    17:00 -13°C° 0 mm 5 mps 775 mmHg 78%
    18:00 -14°C° 0 mm 5 mps 775 mmHg 81%
    19:00 -15°C° 0 mm 5 mps 775 mmHg 84%
    20:00 -15°C° 0 mm 5 mps 775 mmHg 85%
    21:00 -15°C° 0 mm 5 mps 775 mmHg 87%
    22:00 -15°C° 0 mm 5 mps 775 mmHg 88%
    23:00 -15°C° 0 mm 4 mps 775 mmHg 89%

    26 February, Monday

    Time Temperature Precipitation Wind Pressure Humidity
    00:00 -15°C° 0 mm 4 mps 775 mmHg 90%
    01:00 -14°C° 0 mm 3 mps 775 mmHg 91%
    02:00 -14°C° 0 mm 3 mps 775 mmHg 91%
    03:00 -15°C° 0 mm 3 mps 774 mmHg 92%
    04:00 -14°C° 0 mm 2 mps 774 mmHg 92%
    05:00 -15°C° 0 mm 3 mps 774 mmHg 92%
    06:00 -14°C° 0 mm 3 mps 774 mmHg 92%
    07:00 -15°C° 0 mm 4 mps 774 mmHg 91%
    08:00 -14°C° 0 mm 4 mps 774 mmHg 85%
    09:00 -12°C° 0 mm 4 mps 774 mmHg 79%
    10:00 -11°C° 0 mm 4 mps 774 mmHg 74%
    11:00 -10°C° 0 mm 4 mps 774 mmHg 72%
    12:00 -10°C° 0 mm 4 mps 773 mmHg 70%
    13:00 -10°C° 0 mm 4 mps 773 mmHg 68%
    14:00 -10°C° 0 mm 4 mps 773 mmHg 69%
    15:00 -11°C° 0 mm 5 mps 773 mmHg 71%
    16:00 -11°C° 0 mm 5 mps 773 mmHg 72%
    17:00 -12°C° 0 mm 5 mps 772 mmHg 76%
    18:00 -13°C° 0 mm 5 mps 772 mmHg 81%
    19:00 -14°C° 0 mm 5 mps 772 mmHg 85%
    20:00 -14°C° 0 mm 5 mps 772 mmHg 86%
    21:00 -14°C° 0 mm 5 mps 772 mmHg 87%
    22:00 -14°C° 0 mm 5 mps 772 mmHg 88%
    23:00 -15°C° 0 mm 5 mps 772 mmHg 88%

    27 February, Tuesday

    Time Temperature Precipitation Wind Pressure Humidity
    00:00 -15°C° 0 mm 5 mps 772 mmHg 88%
    01:00 -15°C° 0 mm 4 mps 772 mmHg 88%
    02:00 -16°C° 0 mm 4 mps 772 mmHg 88%
    03:00 -16°C° 0 mm 4 mps 771 mmHg 88%
    04:00 -16°C° 0 mm 4 mps 771 mmHg 88%
    05:00 -16°C° 0 mm 4 mps 771 mmHg 89%
    06:00 -18°C° 0 mm 5 mps 771 mmHg 89%
    07:00 -18°C° 0 mm 5 mps 770 mmHg 90%
    08:00 -17°C° 0 mm 5 mps 771 mmHg 84%
    09:00 -17°C° 0 mm 5 mps 771 mmHg 79%
    10:00 -15°C° 0 mm 5 mps 771 mmHg 73%
    11:00 -15°C° 0 mm 5 mps 771 mmHg 71%
    12:00 -15°C° 0 mm 5 mps 771 mmHg 69%
    13:00 -15°C° 0 mm 4 mps 771 mmHg 67%
    14:00 -15°C° 0 mm 5 mps 771 mmHg 68%
    15:00 -17°C° 0 mm 5 mps 771 mmHg 70%
    16:00 -17°C° 0 mm 5 mps 771 mmHg 71%
    17:00 -18°C° 0 mm 6 mps 771 mmHg 75%
    18:00 -20°C° 0 mm 6 mps 771 mmHg 79%
    19:00 -21°C° 0 mm 6 mps 772 mmHg 83%
    20:00 -21°C° 0 mm 6 mps 772 mmHg 84%
    21:00 -22°C° 0 mm 6 mps 772 mmHg 85%
    22:00 -22°C° 0 mm 6 mps 772 mmHg 86%
    23:00 -22°C° 0 mm 6 mps 772 mmHg 87%

    28 February, Wednesday

    Time Temperature Precipitation Wind Pressure Humidity
    00:00 -23°C° 0 mm 6 mps 773 mmHg 88%
    01:00 -23°C° 0 mm 6 mps 773 mmHg 89%
    02:00 -23°C° 0 mm 6 mps 773 mmHg 90%
    03:00 -23°C° 0 mm 6 mps 773 mmHg 90%
    04:00 -23°C° 0 mm 6 mps 772 mmHg 91%
    05:00 -23°C° 0 mm 6 mps 772 mmHg 90%
    06:00 -24°C° 0 mm 7 mps 772 mmHg 90%
    07:00 -24°C° 0 mm 7 mps 772 mmHg 89%
    08:00 -23°C° 0 mm 7 mps 772 mmHg 84%
    09:00 -20°C° 0 mm 7 mps 772 mmHg 79%
    10:00 -19°C° 0 mm 7 mps 772 mmHg 74%
    11:00 -19°C° 0 mm 7 mps 772 mmHg 73%
    12:00 -18°C° 0 mm 7 mps 771 mmHg 72%
    13:00 -17°C° 0 mm 7 mps 771 mmHg 71%
    14:00 -17°C° 0 mm 7 mps 770 mmHg 74%
    15:00 -17°C° 0 mm 7 mps 770 mmHg 76%
    16:00 -17°C° 0 mm 7 mps 769 mmHg 79%
    17:00 -17°C° 0 mm 7 mps 769 mmHg 80%
    18:00 -17°C° 0 mm 7 mps 769 mmHg 82%
    19:00 -17°C° 0 mm 7 mps 768 mmHg 83%
    20:00 -17°C° 0 mm 7 mps 768 mmHg 84%
    21:00 -17°C° 0 mm 7 mps 768 mmHg 85%
    22:00 -17°C° 0 mm 7 mps 768 mmHg 86%
    23:00 -16°C° 0.1 mm 6 mps 767 mmHg 86%
    Show more